PEGASUS DEB, 24227

Orbit data source: Space-Track

PEGASUS DEB, 24227 is space debris in LEO originally from a launch on Thu, 19 May 1994 UTC launched from the Air Force Western Test Range (AFWTR). Debris objects in space refer to the collection of defunct objects orbiting the Earth. Examples of debris include non-operational satellites, rocket bodies, and fragments generated from explosions, collisions, or faulty payload assembly.

Loading next visibility...
Identifier
24227, 1994-029LA
Orbit
LEO
Country
Flag of USUS
Related business
Manufacturer
Unknown
Mission
Spacecraft
Bus & Motor
Unknown
Mass
Unknown
Launch date (UTC)
1994-05-19 (32 years ago)
Launch vehicle
Unknown
Launch site
Air Force Western Test Range (AFWTR)
Object type
Payload
Rocket body
Debris
Shape & HBR
Unknown shape, 0.1 m
Radar Cross Section
Medium (>0.1 m² and <1 m²)

Expand to show TLE details & history
Last TLE update: 12 hours ago

TLE from 12 hours ago
0 PEGASUS DEB
1 24227U 94029LA  26255.71429017  .00000956  00000-0  11346-3 0  9990
2 24227  82.0427 354.6194 0134990 353.8259 168.2753 14.77096648614673
Epoch: 2026-09-12T17:08Z
TLE epoch observation values (Epoch: 2026-09-12T17:08:34.670Z)
Latitude
17.40284°
Longitude
-76.74204°
Altitude
733.73 km
Speed
7.44 km/s
True Right ascension
11h 28m 29s
True Declination
17° 18' 17"
Sunlit
Object was in daylight at epoch
Visualization orbit readout
Latitude
Unknown
Longitude
Unknown
Altitude
Unknown
Speed
Unknown
Apparent Right ascension
Unknown
Apparent Declination
Unknown
Sunlit
N/A
Visualization observer readout
Local Sidereal Time
21:30:20
Azimuth
Unknown
Elevation
Unknown
Doppler factor
Unknown
Orbital elements
Apogee altitude
730.228 km
Perigee altitude
540.872 km
Semi-major axis
7,013.687 km
Eccentricity
0.0135
Inclination
82.0427°
RAAN
354.6194°
Arg. of periapsis
353.8259°
True anomaly
168.58453°
Mean anomaly
168.2753°
Eccentric anomaly
168.43042°
Mean motion
3.69508 °/min
Orbital period
97.43 mins
BSTAR
0.00011346
Loading maneuver chart data...
Computing Atmospheric mass density...

Documentation

Showing up to 5 results
|